Regional Weather Roundup
Issued by NWS Nashville, TN

Home | Current Version | Previous Version | Text Only | Print | Product List | Glossary On
Versions: 1 2 3 4 5 6 7 8 9 10 11 12 13 14 15 16 17 18 19 20 21 22 23 24 25 26 27
000
ASUS44 KOHX 250210
RWROHX
MIDDLE TENNESSEE HOURLY WEATHER ROUNDUP
NATIONAL WEATHER SERVICE NASHVILLE TN
800 PM CST FRI NOV 24 2017

NOTE: "FAIR" INDICATES FEW OR NO CLOUDS BELOW 12,000 FEET WITH
NO SIGNIFICANT WEATHER AND/OR OBSTRUCTIONS TO VISIBILITY.

* THESE REPORTS ARE NOT UNDER NWS QUALITY CONTROL AND MAY NOT
  REPORT WEATHER SUCH AS PRECIPITATION AND FOG.


TNZ005>011-023>034-057-059-062>066-078-080-250300
...NORTHERN MIDDLE TENNESSEE...

CITY           SKY/WX    TMP DP  RH WIND       PRES   REMARKS
CLARKSVILLE    CLEAR     49  26  41 S8        29.86S
CROSSVILLE     PTCLDY    49  37  63 SW5       29.94R
GALLATIN       CLEAR     52  32  46 S6        29.92S
DICKSON          N/A     50  25  38 S13       29.88S
LEBANON        CLEAR     50  34  54 CALM      29.89S
NASHVILLE      CLEAR     49  31  49 S7        29.91R
PORTLAND       CLEAR     50  30  46 S8        29.88S
SMYRNA         CLEAR     41  33  73 SE3       29.93R
SPARTA         CLEAR     37  34  87 CALM      29.93R
SPRINGFIELD    CLEAR     52  25  35 S9        29.86S
WEST NASHVILLE CLEAR     50  28  43 CALM      29.88S
$$
TNZ056-058-060-061-075>077-079-093>097-250300
...SOUTHERN MIDDLE TENNESSEE...

CITY           SKY/WX    TMP DP  RH WIND       PRES   REMARKS
COLUMBIA       CLEAR     45  30  57 CALM      29.90S
FAYETTEVILLE   CLEAR     52  39  62 S5        29.94R
MCMINNVILLE    CLEAR     50  39  66 SW6       29.94R
MURFREESBORO   CLEAR     50  36  57 S5        29.92R
PULASKI        CLEAR     37  36  93 CALM      29.94R
SHELBYVILLE    CLEAR     41  36  81 S3        29.93R
TULLAHOMA      CLEAR     43  36  75 CALM      29.94R
WINCHESTER     CLEAR     39  36  87 CALM      29.96R
$$


...KEY TO REMARKS...
VSB - VISIBILITY IN MILES
WCI - WIND CHILL INDEX
HX  - HEAT INDEX





USA.gov is the U.S. government's official web portal to all federal, state and local government web resources and services.